TimeEDT,TemperatureF,Dew PointF,Humidity,Sea Level PressureIn,VisibilityMPH,Wind Direction,Wind SpeedMPH,Gust SpeedMPH,PrecipitationIn,Events,Conditions,WindDirDegrees,DateUTC
2:35 AM,60.8,60.8,100,29.80,4.0,WSW,4.6,-,0.06,Rain,Rain,240,2012-10-19 06:35:00
2:55 AM,62.6,62.6,100,29.79,3.0,SW,8.1,-,0.33,Rain,Rain,230,2012-10-19 06:55:00
3:15 AM,62.6,62.6,100,29.79,10.0,SW,5.8,-,N/A,,Overcast,220,2012-10-19 07:15:00
3:35 AM,62.6,62.6,100,29.79,7.0,SSW,3.5,-,N/A,,Overcast,210,2012-10-19 07:35:00
3:55 AM,60.8,60.8,100,29.78,7.0,Calm,Calm,-,N/A,,Mostly Cloudy,0,2012-10-19 07:55:00
4:15 AM,60.8,60.8,100,29.77,4.0,Calm,Calm,-,N/A,,Mostly Cloudy,0,2012-10-19 08:15:00
4:35 AM,60.8,60.8,100,29.77,5.0,Calm,Calm,-,N/A,,Scattered Clouds,0,2012-10-19 08:35:00
4:55 AM,60.8,60.8,100,29.78,7.0,South,3.5,-,N/A,,Scattered Clouds,180,2012-10-19 08:55:00
5:15 AM,60.8,60.8,100,29.78,4.0,Calm,Calm,-,N/A,,Clear,0,2012-10-19 09:15:00
5:35 AM,59.0,59.0,100,29.78,1.0,Calm,Calm,-,N/A,,Mostly Cloudy,0,2012-10-19 09:35:00
5:55 AM,59.0,59.0,100,29.79,0.5,Calm,Calm,-,N/A,Fog,Fog,0,2012-10-19 09:55:00
6:15 AM,59.0,59.0,100,29.80,1.0,NW,3.5,-,N/A,,Overcast,310,2012-10-19 10:15:00
6:35 AM,59.0,59.0,100,29.81,0.5,Calm,Calm,-,N/A,Fog,Fog,0,2012-10-19 10:35:00
6:55 AM,59.0,59.0,100,29.81,4.0,Calm,Calm,-,N/A,,Mostly Cloudy,0,2012-10-19 10:55:00
7:15 AM,59.0,59.0,100,29.81,1.5,Calm,Calm,-,N/A,,Overcast,0,2012-10-19 11:15:00
7:35 AM,59.0,59.0,100,29.80,1.8,Calm,Calm,-,N/A,,Overcast,0,2012-10-19 11:35:00
7:55 AM,59.0,59.0,100,29.80,0.2,Calm,Calm,-,N/A,Fog,Fog,0,2012-10-19 11:55:00
8:15 AM,57.2,57.2,100,29.80,0.5,Calm,Calm,-,N/A,Fog,Fog,0,2012-10-19 12:15:00
8:35 AM,59.0,59.0,100,29.80,1.8,Calm,Calm,-,N/A,,Mist,0,2012-10-19 12:35:00
8:55 AM,59.0,59.0,100,29.81,1.2,Calm,Calm,-,N/A,,Scattered Clouds,0,2012-10-19 12:55:00
9:15 AM,59.0,59.0,100,29.81,4.0,Calm,Calm,-,N/A,,Mostly Cloudy,0,2012-10-19 13:15:00
9:35 AM,59.0,59.0,100,29.81,3.0,West,3.5,-,N/A,,Overcast,270,2012-10-19 13:35:00
9:55 AM,59.0,59.0,100,29.82,4.0,WSW,3.5,-,N/A,,Scattered Clouds,250,2012-10-19 13:55:00
10:15 AM,60.8,60.8,100,29.82,7.0,SSW,3.5,-,N/A,,Scattered Clouds,210,2012-10-19 14:15:00
10:35 AM,62.6,59.0,88,29.81,10.0,SSW,3.5,-,N/A,,Scattered Clouds,210,2012-10-19 14:35:00
10:55 AM,62.6,59.0,88,29.81,10.0,Calm,Calm,-,N/A,,Clear,0,2012-10-19 14:55:00
11:15 AM,64.4,59.0,83,29.81,10.0,Calm,Calm,-,N/A,,Clear,0,2012-10-19 15:15:00
11:35 AM,66.2,57.2,73,29.80,10.0,South,3.5,-,N/A,,Clear,190,2012-10-19 15:35:00
11:55 AM,68.0,51.8,56,29.80,10.0,South,6.9,-,N/A,,Clear,190,2012-10-19 15:55:00
12:15 PM,68.0,48.2,49,29.80,10.0,South,8.1,-,N/A,,Clear,180,2012-10-19 16:15:00
12:35 PM,69.8,41.0,35,29.80,10.0,SSW,10.4,-,N/A,,Clear,200,2012-10-19 16:35:00
12:55 PM,69.8,42.8,38,29.79,10.0,SSW,11.5,18.4,N/A,,Clear,200,2012-10-19 16:55:00
1:15 PM,69.8,46.4,43,29.78,10.0,South,10.4,17.3,N/A,,Clear,180,2012-10-19 17:15:00
1:35 PM,69.8,44.6,40,29.77,10.0,SSW,15.0,-,N/A,,Clear,210,2012-10-19 17:35:00
1:55 PM,71.6,39.2,31,29.77,10.0,SSW,15.0,18.4,N/A,,Clear,210,2012-10-19 17:55:00
2:15 PM,71.6,37.4,29,29.76,10.0,South,10.4,-,N/A,,Clear,190,2012-10-19 18:15:00
2:35 PM,69.8,35.6,28,29.76,10.0,WSW,13.8,23.0,N/A,,Clear,240,2012-10-19 18:35:00
2:55 PM,71.6,35.6,27,29.75,10.0,SSW,13.8,20.7,N/A,,Clear,210,2012-10-19 18:55:00
3:15 PM,71.6,33.8,25,29.76,10.0,SW,17.3,23.0,N/A,,Clear,220,2012-10-19 19:15:00
3:35 PM,69.8,33.8,27,29.75,10.0,SW,17.3,20.7,N/A,,Clear,220,2012-10-19 19:35:00
3:55 PM,69.8,32.0,25,29.74,10.0,SSW,15.0,20.7,N/A,,Clear,210,2012-10-19 19:55:00
4:15 PM,69.8,32.0,25,29.74,10.0,SW,15.0,18.4,N/A,,Clear,220,2012-10-19 20:15:00
4:35 PM,69.8,30.2,23,29.74,10.0,SW,13.8,21.9,N/A,,Clear,220,2012-10-19 20:35:00
4:55 PM,69.8,30.2,23,29.74,10.0,WSW,11.5,19.6,N/A,,Clear,240,2012-10-19 20:55:00
5:15 PM,69.8,32.0,25,29.74,10.0,SW,10.4,-,N/A,,Clear,230,2012-10-19 21:15:00
5:35 PM,68.0,32.0,26,29.74,10.0,SW,6.9,-,N/A,,Clear,220,2012-10-19 21:35:00
5:55 PM,68.0,32.0,26,29.75,10.0,SW,6.9,-,N/A,,Clear,220,2012-10-19 21:55:00
6:15 PM,66.2,33.8,30,29.75,10.0,Calm,Calm,-,N/A,,Clear,0,2012-10-19 22:15:00
6:35 PM,60.8,39.2,45,29.76,10.0,Calm,Calm,-,N/A,,Clear,0,2012-10-19 22:35:00
6:55 PM,59.0,41.0,51,29.76,10.0,Calm,Calm,-,N/A,,Clear,0,2012-10-19 22:55:00
7:15 PM,55.4,41.0,58,29.76,10.0,South,3.5,-,N/A,,Clear,180,2012-10-19 23:15:00
7:35 PM,55.4,42.8,63,29.77,10.0,Calm,Calm,-,N/A,,Clear,0,2012-10-19 23:35:00
7:55 PM,53.6,42.8,67,29.78,10.0,Calm,Calm,-,N/A,,Clear,0,2012-10-19 23:55:00
8:15 PM,53.6,42.8,67,29.78,10.0,Calm,Calm,-,N/A,,Clear,0,2012-10-20 00:15:00
8:35 PM,53.6,42.8,67,29.79,10.0,Calm,Calm,-,N/A,,Clear,0,2012-10-20 00:35:00
8:55 PM,53.6,42.8,67,29.79,10.0,Calm,Calm,-,N/A,,Clear,0,2012-10-20 00:55:00
9:15 PM,53.6,41.0,62,29.80,10.0,Calm,Calm,-,N/A,,Clear,0,2012-10-20 01:15:00
9:35 PM,53.6,41.0,62,29.80,10.0,Calm,Calm,-,N/A,,Clear,0,2012-10-20 01:35:00
9:55 PM,51.8,41.0,67,29.80,10.0,Calm,Calm,-,N/A,,Clear,0,2012-10-20 01:55:00
10:15 PM,50.0,42.8,76,29.81,10.0,Calm,Calm,-,N/A,,Clear,0,2012-10-20 02:15:00
10:35 PM,51.8,42.8,71,29.81,10.0,Calm,Calm,-,N/A,,Clear,0,2012-10-20 02:35:00
10:55 PM,51.8,41.0,67,29.81,10.0,Calm,Calm,-,N/A,,Clear,0,2012-10-20 02:55:00
11:15 PM,55.4,37.4,51,29.81,10.0,SSW,3.5,-,N/A,,Clear,200,2012-10-20 03:15:00
11:35 PM,57.2,35.6,44,29.81,10.0,SSW,3.5,-,N/A,,Clear,210,2012-10-20 03:35:00
11:55 PM,57.2,35.6,44,29.80,10.0,SSW,3.5,-,N/A,,Clear,200,2012-10-20 03:55:00